Radioactive Concentration measured by Seawater Radiation Monitor near Fukushima Daiichi Nuclear Power Station
Date,Time,Cs137(Bq/L),Cs134(Bq/L),Total β(Bq/L)
2019/03/19,00:00,0.36,ND,ND
2019/03/19,00:10,0.36,ND,10
2019/03/19,00:20,0.35,ND,11
2019/03/19,00:30,0.34,ND,13
2019/03/19,00:40,0.32,ND,14
2019/03/19,00:50,0.30,ND,14
2019/03/19,01:00,0.29,ND,12
2019/03/19,01:10,0.30,ND,ND
2019/03/19,01:20,0.36,ND,9.0
2019/03/19,01:30,0.36,ND,11
2019/03/19,01:40,0.38,ND,13
2019/03/19,01:50,0.39,ND,13
2019/03/19,02:00,0.38,ND,17
2019/03/19,02:10,0.33,ND,18
2019/03/19,02:20,0.32,ND,16
2019/03/19,02:30,0.33,ND,12
2019/03/19,02:40,0.35,ND,12
2019/03/19,02:50,0.33,ND,11
2019/03/19,03:00,0.34,ND,10
2019/03/19,03:10,0.32,ND,9.2
2019/03/19,03:20,0.32,ND,14
2019/03/19,03:30,0.32,ND,18
2019/03/19,03:40,0.32,ND,13
2019/03/19,03:50,0.34,ND,16
2019/03/19,04:00,0.36,ND,17
2019/03/19,04:10,0.38,ND,18
2019/03/19,04:20,0.39,ND,15
2019/03/19,04:30,0.38,ND,13
2019/03/19,04:40,0.41,ND,17
2019/03/19,04:50,0.41,ND,17
2019/03/19,05:00,0.43,ND,17
2019/03/19,05:10,0.46,ND,14
2019/03/19,05:20,0.49,ND,13
2019/03/19,05:30,0.50,ND,14
2019/03/19,05:40,0.50,ND,12
2019/03/19,05:50,0.49,ND,10
2019/03/19,06:00,0.51,ND,12
2019/03/19,06:10,0.52,ND,13
2019/03/19,06:20,0.51,ND,15
2019/03/19,06:30,0.54,ND,13
2019/03/19,06:40,0.57,ND,15
2019/03/19,06:50,0.61,ND,16
2019/03/19,07:00,0.62,ND,13
2019/03/19,07:10,0.62,ND,15
2019/03/19,07:20,0.64,ND,16
2019/03/19,07:30,0.65,ND,19
2019/03/19,07:40,0.62,ND,16
2019/03/19,07:50,0.60,ND,16
2019/03/19,08:00,0.61,ND,16
2019/03/19,08:10,0.61,ND,13
2019/03/19,08:20,0.59,ND,12
2019/03/19,08:30,0.58,ND,13
2019/03/19,08:40,0.59,ND,16
2019/03/19,08:50,0.59,ND,14
2019/03/19,09:00,0.59,ND,15
2019/03/19,09:10,0.60,ND,17
2019/03/19,09:20,0.62,ND,17
2019/03/19,09:30,0.63,ND,15
2019/03/19,09:40,0.60,ND,12
2019/03/19,09:50,0.60,ND,14
2019/03/19,10:00,0.60,ND,15
2019/03/19,10:10,0.57,ND,13
2019/03/19,10:20,0.57,ND,13
2019/03/19,10:30,0.56,ND,12
2019/03/19,10:40,0.55,ND,14
2019/03/19,10:50,0.56,ND,15
2019/03/19,11:00,0.58,ND,12
2019/03/19,11:10,0.57,ND,14
2019/03/19,11:20,0.54,ND,15
2019/03/19,11:30,0.54,ND,15
2019/03/19,11:40,0.54,ND,14
2019/03/19,11:50,0.54,ND,13
2019/03/19,12:00,0.49,ND,15
2019/03/19,12:10,0.47,ND,14
2019/03/19,12:20,0.46,ND,13
2019/03/19,12:30,0.44,ND,13
2019/03/19,12:40,0.43,ND,15
2019/03/19,12:50,0.42,ND,14
2019/03/19,13:00,0.42,ND,13
2019/03/19,13:10,0.44,ND,16
2019/03/19,13:20,0.42,ND,15
2019/03/19,13:30,0.42,ND,15
2019/03/19,13:40,0.42,ND,12
2019/03/19,13:50,0.41,ND,10
2019/03/19,14:00,0.39,ND,10
2019/03/19,14:10,0.40,ND,ND
2019/03/19,14:20,0.43,ND,9.9
2019/03/19,14:30,0.43,ND,11
2019/03/19,14:40,0.44,ND,13
2019/03/19,14:50,0.45,ND,13
2019/03/19,15:00,0.46,ND,14
2019/03/19,15:10,0.43,ND,16
2019/03/19,15:20,0.40,ND,14
2019/03/19,15:30,0.40,ND,11
2019/03/19,15:40,0.38,ND,13
2019/03/19,15:50,0.37,ND,17
2019/03/19,16:00,0.36,ND,18
2019/03/19,16:10,0.37,ND,17
2019/03/19,16:20,0.37,ND,16
2019/03/19,16:30,0.39,ND,17
2019/03/19,16:40,0.40,ND,17
2019/03/19,16:50,0.42,ND,17
2019/03/19,17:00,0.46,ND,14
2019/03/19,17:10,0.48,ND,12
2019/03/19,17:20,0.52,ND,13
2019/03/19,17:30,0.53,ND,14
2019/03/19,17:40,0.56,ND,14
2019/03/19,17:50,0.59,ND,11
2019/03/19,18:00,0.61,ND,12
2019/03/19,18:10,0.61,ND,11
2019/03/19,18:20,0.62,ND,11
2019/03/19,18:30,0.64,ND,11
2019/03/19,18:40,0.62,ND,10
2019/03/19,18:50,0.60,ND,13
2019/03/19,19:00,0.57,ND,13
2019/03/19,19:10,0.56,ND,16
2019/03/19,19:20,0.52,ND,14
2019/03/19,19:30,0.49,ND,13
2019/03/19,19:40,0.47,ND,14
2019/03/19,19:50,0.48,ND,11
2019/03/19,20:00,0.47,ND,13
2019/03/19,20:10,0.48,ND,9.0
2019/03/19,20:20,0.46,ND,13
2019/03/19,20:30,0.47,ND,13
2019/03/19,20:40,0.49,ND,12
2019/03/19,20:50,0.46,ND,16
2019/03/19,21:00,0.47,ND,15
2019/03/19,21:10,0.45,ND,18
2019/03/19,21:20,0.46,ND,17
2019/03/19,21:30,0.44,ND,15
2019/03/19,21:40,0.44,ND,15
2019/03/19,21:50,0.46,ND,13
2019/03/19,22:00,0.48,ND,13
2019/03/19,22:10,0.50,ND,12
2019/03/19,22:20,0.54,ND,13
2019/03/19,22:30,0.55,ND,13
2019/03/19,22:40,0.56,ND,11
2019/03/19,22:50,0.56,ND,9.5
2019/03/19,23:00,0.57,ND,9.6
2019/03/19,23:10,0.56,ND,11
2019/03/19,23:20,0.55,ND,ND
2019/03/19,23:30,0.56,ND,11
2019/03/19,23:40,0.55,ND,13
2019/03/19,23:50,0.55,ND,15
